Vorticity
12 12 6 20 13 8 -0 6 6 8 14 7 5 2 6 1 1 1 3 6 6 2 10 5 4 1 4 4 4 5 5 5 4 9 9 7 11 12 8 8 8 8 6 7
6 8 12 10 7 10 7 -1 -1 0 8 10 3 3 -1 1 5 7 10 2 4 5 13 6 4 4 3 3 8 5 4 5 3 5 8 6 8 7 10 11 10 10 7 9
7 4 13 18 10 10 8 11 8 1 4 6 7 12 11 9 9 8 9 6 6 10 12 6 5 5 4 5 6 6 4 1 3 2 6 12 10 10 9 9 9 9 10 9
23 14 2 2 8 16 7 9 15 11 9 6 21 -0 14 21 15 17 15 18 16 13 6 4 4 4 4 4 3 4 2 -1 -3 1 6 10 10 9 8 9 8 9 9 9
1 4 16 18 10 -1 11 12 10 14 12 8 4 1 34 18 5 2 8 9 9 6 3 3 3 5 4 3 5 2 1 4 0 5 7 13 10 9 9 9 9 9 9 10
16 8 4 12 10 17 4 14 12 13 14 18 21 -4 30 9 12 10 5 7 8 5 3 2 2 3 1 2 2 3 4 3 1 7 14 12 9 9 9 9 9 9 10 13
7 17 18 13 5 3 10 8 12 12 9 4 19 24 -31 21 7 15 6 13 9 5 3 2 4 3 3 0 4 6 5 3 18 17 12 11 10 11 11 10 11 14 19 23
14 14 16 19 20 -1 23 0 -15 8 6 -1 24 19 1 27 5 10 13 11 9 5 5 4 2 1 0 5 7 1 1 19 12 11 11 11 11 11 12 11 13 15 16 19
4 16 11 8 10 17 29 12 18 -5 9 13 8 18 6 17 19 14 11 8 4 6 4 3 1 -1 9 -1 2 1 20 15 12 11 10 10 11 11 11 10 9 10 15 13
17 7 16 14 11 9 4 2 18 11 6 10 18 12 -21 24 15 10 6 6 6 5 3 1 2 6 1 -0 -3 19 14 11 10 10 10 11 12 14 13 12 11 12 12 14
8 10 1 -1 12 12 22 8 -4 1 -2 6 6 16 20 26 18 19 10 5 5 4 -1 3 2 0 0 3 12 15 8 10 10 12 13 14 16 14 15 16 18 19 16 13
-0 11 7 -4 -4 3 9 10 25 -25 18 3 3 3 -13 9 34 14 6 1 -2 -0 5 2 -2 -3 3 1 17 10 6 8 11 13 14 14 14 18 19 24 27 20 24 25
14 11 12 23 32 27 17 18 19 12 8 -6 -1 -9 3 23 32 9 4 1 6 3 3 -2 -2 2 3 16 11 8 7 6 13 15 11 10 13 17 20 9 5 17 3 12
18 12 -24 -24 -18 2 5 4 -5 11 23 14 4 2 -0 12 24 13 9 5 2 2 -0 -1 -1 7 14 9 10 10 9 10 13 15 10 9 19 17 7 10 9 14 14 14
4 7 6 11 16 8 4 -4 -15 -9 -3 2 6 8 -2 3 8 14 7 1 0 -5 0 6 13 14 6 14 14 16 6 14 13 11 9 12 22 6 10 12 11 23 14 10
9 6 8 7 9 4 12 10 12 5 5 8 -4 0 -2 8 2 -5 -2 -1 -2 13 10 26 -0 9 16 14 15 12 10 14 13 9 14 18 23 3 15 5 10 4 13 13
17 12 12 19 24 11 50 33 34 30 24 17 17 22 26 8 10 -5 6 8 -5 9 16 -2 8 14 10 4 14 7 14 16 6 12 17 20 19 3 12 -1 15 24 17 22
-7 -4 0 6 10 24 25 8 6 5 14 20 21 25 27 27 14 10 6 8 18 16 1 8 10 8 5 6 14 10 16 14 6 14 21 23 6 10 11 11 16 13 6 27
8 5 -6 -0 18 -27 2 -15 -1 9 12 9 9 11 15 15 7 7 8 18 13 2 10 6 8 6 8 13 12 18 12 15 8 15 20 18 6 7 9 16 9 14 5 28
28 5 1 7 3 -0 19 10 3 18 15 16 17 17 13 9 18 24 20 17 16 11 7 5 6 4 13 14 8 15 10 12 7 14 21 18 6 6 15 10 13 13 13 13
12 33 3 7 -10 20 20 -4 -15 13 1 8 9 10 8 10 16 18 10 11 8 8 6 7 1 16 -8 15 13 11 10 11 7 13 22 15 3 11 4 5 18 10 10 17
4 -1 37 31 9 19 14 20 -2 4 16 4 3 4 7 5 12 9 13 -3 -2 -2 -2 -2 -1 -2 8 11 7 6 11 11 9 11 23 17 4 5 7 11 8 15 13 11
5 -14 -3 -7 36 -9 7 15 27 17 7 5 7 3 3 2 2 5 6 7 6 3 1 0 7 4 20 8 5 16 12 11 11 8 24 16 9 12 6 17 9 4 11 4
12 3 4 4 7 -13 2 -9 -7 -6 2 -4 3 10 1 10 1 -1 -2 1 4 -2 2 9 4 7 12 3 10 21 5 10 13 9 12 18 14 9 10 11 13 12 10 12
12 4 6 5 2 7 -11 -6 -4 -13 -9 -7 -3 -0 -2 -1 5 11 11 9 9 10 0 7 4 2 7 0 13 17 12 2 16 12 8 15 21 20 16 15 16 18 15 16
9 17 14 14 23 25 25 42 26 28 15 -2 2 -2 -4 -2 -1 -2 -3 -2 3 2 1 3 3 -2 3 10 15 9 17 5 16 12 11 11 12 12 11 10 10 10 13 13
Height
3086 3087 3086 3088 3089 3089 3090 3090 3091 3090 3092 3094 3094 3096 3097 3097 3098 3098 3099 3101 3102 3102 3104 3105 3105 3105 3107 3108 3108 3108 3107 3107 3106 3106 3105 3104 3102 3101 3099 3096 3094 3093 3091 3090
3085 3084 3084 3085 3086 3087 3088 3090 3091 3092 3091 3091 3091 3093 3093 3093 3094 3095 3096 3097 3098 3099 3100 3101 3102 3104 3104 3104 3104 3104 3104 3103 3101 3099 3097 3095 3094 3093 3092 3090 3088 3085 3083 3082
3082 3083 3082 3082 3084 3085 3086 3087 3088 3091 3091 3090 3089 3087 3088 3089 3089 3090 3092 3093 3093 3095 3096 3098 3099 3100 3101 3101 3101 3101 3100 3098 3096 3093 3091 3088 3085 3084 3082 3080 3079 3077 3075 3073
3079 3079 3080 3080 3081 3083 3082 3084 3084 3084 3087 3088 3089 3084 3082 3083 3084 3085 3086 3088 3089 3091 3093 3096 3097 3098 3098 3098 3098 3097 3095 3093 3090 3086 3082 3078 3076 3073 3072 3070 3069 3068 3066 3063
3076 3075 3076 3077 3078 3080 3081 3081 3082 3082 3083 3084 3085 3088 3076 3078 3080 3081 3082 3083 3085 3088 3091 3093 3093 3094 3094 3094 3093 3092 3090 3086 3083 3080 3075 3072 3068 3065 3062 3060 3058 3057 3057 3053
3073 3073 3074 3075 3075 3077 3078 3080 3080 3079 3079 3081 3075 3081 3072 3073 3075 3077 3078 3079 3081 3084 3086 3089 3090 3090 3090 3090 3088 3086 3084 3080 3076 3072 3068 3063 3060 3056 3053 3050 3048 3045 3044 3043
3070 3069 3070 3072 3073 3074 3076 3079 3079 3082 3081 3074 3071 3073 3066 3069 3070 3073 3075 3076 3078 3080 3083 3084 3086 3086 3086 3085 3083 3080 3076 3073 3068 3063 3059 3056 3052 3047 3043 3040 3037 3034 3032 3030
3069 3068 3068 3069 3071 3073 3074 3077 3078 3086 3082 3071 3069 3065 3059 3062 3065 3068 3072 3074 3075 3077 3080 3081 3082 3082 3082 3080 3077 3073 3069 3065 3060 3055 3052 3048 3043 3039 3035 3031 3028 3025 3022 3021
3067 3066 3066 3067 3068 3072 3071 3073 3076 3076 3075 3075 3066 3060 3058 3058 3059 3061 3065 3069 3071 3073 3076 3077 3078 3078 3077 3074 3070 3066 3062 3057 3052 3048 3044 3040 3036 3031 3027 3024 3020 3017 3014 3012
3065 3066 3064 3065 3066 3068 3069 3072 3073 3074 3076 3075 3060 3059 3055 3055 3056 3057 3060 3065 3067 3070 3072 3073 3073 3073 3070 3067 3064 3059 3054 3050 3045 3041 3036 3032 3028 3023 3019 3015 3012 3008 3005 3003
3064 3064 3064 3063 3062 3063 3066 3066 3070 3071 3068 3068 3067 3056 3054 3055 3056 3056 3060 3063 3065 3067 3068 3068 3068 3066 3065 3062 3057 3053 3049 3044 3039 3034 3029 3023 3018 3014 3009 3005 3001 2998 2995 2993
3062 3061 3060 3061 3061 3060 3060 3061 3062 3064 3065 3062 3060 3057 3056 3056 3056 3058 3060 3062 3063 3064 3064 3064 3062 3061 3059 3056 3051 3047 3043 3038 3033 3027 3021 3015 3011 3006 3001 2997 2994 2991 2988 2986
3058 3057 3058 3057 3059 3058 3057 3057 3058 3059 3060 3058 3060 3054 3054 3055 3055 3057 3058 3058 3060 3061 3060 3058 3057 3055 3053 3050 3045 3041 3037 3033 3027 3021 3016 3010 3005 3000 2997 2994 2990 2987 2984 2980
3054 3054 3053 3054 3054 3055 3055 3055 3056 3056 3056 3053 3052 3053 3055 3055 3054 3055 3055 3056 3056 3056 3055 3054 3052 3050 3047 3043 3040 3037 3032 3027 3022 3016 3011 3006 3001 2997 2994 2991 2987 2983 2979 2975
3049 3047 3047 3047 3048 3049 3049 3049 3050 3051 3051 3050 3048 3049 3051 3053 3053 3053 3053 3052 3052 3052 3051 3049 3047 3044 3042 3039 3035 3031 3027 3022 3016 3011 3006 3001 2998 2995 2991 2987 2983 2979 2975 2972
3043 3042 3041 3041 3044 3044 3041 3040 3042 3043 3042 3041 3042 3040 3046 3049 3049 3049 3050 3048 3047 3046 3045 3043 3041 3039 3036 3033 3029 3025 3021 3016 3011 3005 3001 2997 2994 2992 2988 2984 2981 2977 2973 2969
3039 3039 3038 3036 3038 3037 3032 3030 3030 3031 3033 3033 3031 3034 3039 3040 3041 3042 3042 3040 3040 3040 3039 3038 3037 3034 3032 3028 3024 3020 3016 3011 3006 3001 2996 2992 2990 2988 2985 2982 2979 2975 2971 2967
3034 3034 3035 3034 3035 3036 3026 3025 3024 3024 3026 3025 3025 3027 3029 3031 3032 3033 3034 3035 3034 3034 3034 3033 3032 3029 3027 3023 3020 3016 3011 3007 3002 2997 2992 2989 2988 2986 2983 2981 2978 2976 2972 2968
3027 3029 3031 3032 3030 3024 3022 3022 3021 3020 3023 3021 3022 3023 3025 3026 3027 3028 3028 3029 3029 3030 3030 3029 3028 3025 3022 3019 3015 3012 3007 3002 2998 2993 2990 2987 2986 2985 2982 2981 2978 2976 2975 2970
3018 3022 3026 3026 3025 3022 3018 3017 3017 3016 3018 3017 3017 3018 3020 3022 3022 3024 3023 3024 3024 3024 3025 3024 3024 3022 3019 3015 3012 3008 3004 2999 2996 2991 2988 2986 2986 2984 2982 2981 2978 2977 2976 2974
3010 3013 3014 3017 3018 3014 3012 3015 3016 3017 3019 3013 3014 3015 3016 3018 3020 3020 3019 3018 3019 3020 3020 3020 3020 3018 3015 3012 3009 3005 3001 2997 2993 2989 2987 2986 2985 2984 2982 2981 2978 2978 2977 2975
3009 3009 3008 3012 3012 3010 3006 3010 3013 3010 3008 3009 3010 3011 3012 3013 3014 3015 3014 3014 3015 3015 3015 3016 3016 3015 3012 3009 3006 3002 2999 2995 2991 2988 2985 2985 2984 2983 2982 2980 2979 2979 2978 2976
3008 3005 3004 3007 3004 3002 3002 3003 3003 3003 3004 3003 3004 3005 3005 3007 3007 3008 3008 3009 3010 3011 3011 3011 3012 3010 3008 3006 3003 2999 2997 2992 2989 2987 2984 2983 2983 2982 2981 2980 2979 2979 2979 2978
3000 2997 2998 2999 2999 2998 2997 2997 2998 2996 2996 2996 2996 2997 2998 2997 2998 2999 3001 3003 3005 3006 3007 3007 3007 3006 3004 3002 3000 2997 2994 2991 2988 2986 2984 2983 2982 2981 2981 2980 2979 2979 2980 2979
2994 2993 2992 2988 2988 2989 2989 2988 2988 2988 2988 2988 2989 2989 2989 2990 2991 2993 2995 2996 2998 3000 3002 3002 3002 3001 3000 2998 2996 2994 2992 2989 2987 2985 2984 2982 2982 2981 2980 2980 2980 2980 2981 2981
2988 2987 2984 2979 2982 2980 2977 2980 2980 2978 2978 2976 2975 2977 2978 2979 2980 2983 2984 2986 2990 2992 2994 2995 2996 2995 2994 2993 2992 2991 2989 2987 2985 2984 2984 2982 2982 2982 2981 2981 2981 2982 2982 2982